Date,TemperatureHighF,TemperatureAvgF,TemperatureLowF,DewpointHighF,DewpointAvgF,DewpointLowF,HumidityHigh,HumidityAvg,HumidityLow,PressureMaxIn,PressureMinIn,WindSpeedMaxMPH,WindSpeedAvgMPH,GustSpeedMaxMPH,PrecipitationSumIn
2013-1-1,35,24,13,24,16,10,93,75,37,0.00,40.00,39,12,49,0.00
2013-1-2,29,23,15,20,7,0,87,49,29,0.00,40.00,35,21,45,0.00
2013-1-3,37,25,11,11,1,-6,46,36,25,0.00,40.00,13,2,16,0.00
2013-1-4,43,31,17,10,5,0,55,32,23,0.00,40.00,24,8,29,0.00
2013-1-5,40,29,18,17,11,3,65,47,33,0.00,40.00,21,10,26,0.00
2013-1-6,46,29,13,15,7,2,65,40,21,0.00,40.00,14,3,16,0.00
2013-1-7,42,30,21,19,12,4,73,49,32,0.00,40.00,21,4,26,0.00
2013-1-8,45,36,25,18,12,8,61,38,24,0.00,40.00,20,9,27,0.00
2013-1-9,52,40,22,24,16,9,61,38,21,0.00,40.00,24,6,32,0.00
2013-1-10,53,37,19,26,16,9,96,47,23,0.00,40.00,26,10,30,0.00
2013-1-11,19,7,2,18,2,-4,96,81,72,0.00,40.00,41,30,52,0.00
2013-1-12,13,6,2,4,-1,-4,81,73,57,0.00,40.00,38,11,44,0.00
2013-1-13,13,7,0,4,-2,-11,85,67,50,0.00,40.00,19,8,23,0.00
2013-1-14,18,9,0,-3,-8,-12,58,46,29,0.00,40.00,9,3,12,0.00
2013-1-15,40,27,14,27,17,-5,87,65,37,0.00,40.00,27,8,33,0.00
2013-1-16,46,34,23,19,13,8,68,44,22,0.00,40.00,22,7,32,0.00
2013-1-17,44,32,23,18,12,6,54,42,27,0.00,40.00,9,2,12,0.00
2013-1-18,53,44,32,15,7,1,27,21,15,0.00,40.00,24,6,33,0.00
2013-1-19,45,34,23,17,10,3,73,38,21,0.00,40.00,25,11,34,0.00
2013-1-20,45,24,18,19,14,3,90,71,18,0.00,40.00,40,15,50,0.00
2013-1-21,41,26,14,19,12,6,93,61,25,0.00,40.00,14,3,16,0.00
2013-1-22,50,35,23,8,3,-1,39,27,13,0.00,40.00,16,4,21,0.00
2013-1-23,39,32,25,17,9,0,63,38,21,0.00,40.00,9,3,11,0.00
2013-1-24,56,43,26,20,13,6,71,32,14,0.00,40.00,19,7,24,0.00
2013-1-25,49,35,23,25,17,13,77,50,25,0.00,40.00,9,3,11,0.00
2013-1-26,52,41,29,22,18,14,54,41,29,0.00,40.00,16,5,19,0.00
2013-1-27,40,32,27,32,26,18,97,81,43,0.00,40.00,31,12,35,0.00
2013-1-28,27,23,13,26,16,0,96,77,49,0.00,40.00,18,10,21,0.00
2013-1-29,24,14,-4,18,3,-9,83,63,39,0.00,40.00,42,16,50,0.00
2013-1-30,31,18,-4,28,14,-9,96,85,59,0.00,40.00,34,13,41,0.00
2013-1-31,31,19,4,18,11,1,85,70,55,0.00,40.00,20,5,24,0.00